This is the latest recevied weather packets stored in our database for station/object CT1ETE-13. If no packets are shown the sender has not sent any weather packets the latest 10 day(s).
| Time | Temp. | Humidity | Pressure | Rain* | Wind** | Luminosity | Snow |
|---|---|---|---|---|---|---|---|
| 1787571298 | 18.89° C | 66% | 1006.9 hPa | 0.51 mm | - | 1461 W/m² | - |
| 1787570467 | 18.33° C | 70% | 1007 hPa | 2.03 mm | - | 1466 W/m² | - |
| 1787569551 | 18.33° C | 71% | 1007 hPa | 4.32 mm | - | 1466 W/m² | - |
| 1787568591 | 17.78° C | 73% | 1007.2 hPa | 7.11 mm | - | 1470 W/m² | - |
| 1787567692 | 17.78° C | 73% | 1007.3 hPa | 7.62 mm | - | 1471 W/m² | - |
| 1787566791 | 17.22° C | 75% | 1006.9 hPa | 7.62 mm | - | 1473 W/m² | - |
| 1787565891 | 17.78° C | 79% | 1006.8 hPa | 5.59 mm | - | 1473 W/m² | - |
| 1787564992 | 17.78° C | 81% | 1006.7 hPa | 2.79 mm | - | 1473 W/m² | - |
| 1787564085 | 17.78° C | 84% | 1007 hPa | 2.29 mm | - | 1473 W/m² | - |
| 1787563186 | 18.33° C | 85% | 1007.1 hPa | 1.02 mm | - | 1471 W/m² | - |
| 1787562285 | 18.33° C | 85% | 1007.2 hPa | 0.51 mm | - | 1470 W/m² | - |
| 1787561385 | 18.33° C | 85% | 1007.1 hPa | 0.25 mm | - | 1470 W/m² | - |
| 1787560489 | 18.33° C | 85% | 1007.2 hPa | 0.25 mm | - | 1468 W/m² | - |
| 1787559585 | 18.33° C | 85% | 1007.4 hPa | 0 mm | - | 1466 W/m² | - |
| 1787558681 | 18.33° C | 84% | 1007.6 hPa | 0 mm | - | 1466 W/m² | - |
| 1787557781 | 18.33° C | 84% | 1007.9 hPa | 0 mm | - | 1468 W/m² | - |
| 1787556941 | 18.33° C | 83% | 1007.9 hPa | 0 mm | - | 1470 W/m² | - |
| 1787556041 | 18.33° C | 83% | 1007.9 hPa | 0 mm | - | 1470 W/m² | - |
| 1787555081 | 18.33° C | 82% | 1007.8 hPa | 0 mm | - | 1471 W/m² | - |
| 1787554181 | 17.78° C | 84% | 1007.8 hPa | 0 mm | - | 1478 W/m² | - |
| 1787553281 | 17.78° C | 84% | 1007.9 hPa | 0 mm | - | 1485 W/m² | - |
| 1787552440 | 17.78° C | 84% | 1008.1 hPa | 0 mm | - | 1487 W/m² | - |
| 1787551481 | 17.22° C | 85% | 1008.1 hPa | 0 mm | - | 1489 W/m² | - |
| 1787550580 | 17.22° C | 85% | 1008.4 hPa | 0.25 mm | - | 1492 W/m² | - |
| 1787549681 | 17.22° C | 85% | 1008.4 hPa | 0.25 mm | - | 1494 W/m² | - |
* Rain latest hour (hover to see other rain measurements)
** Current wind speed in m/s (hover to see current wind gust speed)